Aegean Viii — SXKO — position and weather

sailwx.info

Track history (hours):
 
Tides and Currents Weather Stations Pressure Air Temp Water Temp Dewpoint Dewpoint Depression Visibility Wind Speed Wind Dir Waves Ship Positions

Aegean Viii

Last reported at 2014-Oct-30 13:33 UTC. Time now 2014-Oct-30 14:23 UTC.
Position N 37°58' E 023°37'.

Length 12 m; draft 4.5 m.

Type: Tanker. MMSI: 240732000.

Date/timePositionNaut miles runAvg speedWind from/ knotsBaromVisibWave heightAir tempDewpointWater temp
2014-Oct-30 13:33N 37°58' E 023°37'0 0.4
2014-Oct-30 12:33N 37°57' E 023°36'1 1.1
2014-Oct-30 11:33N 37°57' E 023°35'0 0.1
2014-Oct-30 10:33N 37°57' E 023°35'1 1.4
2014-Oct-30 09:33N 37°58' E 023°36'0 0.0
2014-Oct-30 08:33N 37°58' E 023°36'1 1.0
2014-Oct-30 07:34N 37°57' E 023°35'5 5.0
2014-Oct-30 06:34N 38°01' E 023°32'0 0.0
2014-Oct-30 05:33N 38°01' E 023°32'1 1.0
2014-Oct-30 04:33N 38°02' E 023°32'0 0.1
2014-Oct-30 03:33N 38°02' E 023°32'0 0.0
2014-Oct-29 10:33N 38°02' E 023°32'6 5.7
2014-Oct-29 09:33N 37°58' E 023°36'0 0.1
2014-Oct-29 08:33N 37°58' E 023°37'0 0.0
2014-Oct-29 07:34N 37°58' E 023°37'0 0.1
2014-Oct-29 06:34N 37°57' E 023°37'3 3.4
2014-Oct-29 05:34N 37°59' E 023°33'3 3.1
2014-Oct-29 04:34N 38°02' E 023°32'0 0.0
2014-Oct-29 03:33N 38°02' E 023°32'0 0.0
2014-Oct-28 18:33N 38°02' E 023°32'3 2.9
2014-Oct-28 17:33N 38°02' E 023°36'0 0.0
2014-Oct-28 16:33N 38°02' E 023°36'0 0.0
2014-Oct-28 15:33N 38°02' E 023°36'0 0.0
2014-Oct-28 14:33N 38°02' E 023°36'0 0.0
2014-Oct-28 13:33N 38°02' E 023°36'0 0.0
2014-Oct-28 12:33N 38°02' E 023°36'0 0.0
2014-Oct-28 11:33N 38°02' E 023°36'1 0.8
2014-Oct-28 10:33N 38°02' E 023°35'0 0.0
2014-Oct-28 09:33N 38°02' E 023°35'0 0.1
2014-Oct-28 08:33N 38°02' E 023°35'0 0.1
2014-Oct-28 07:33N 38°02' E 023°35'0 0.0
2014-Oct-28 06:33N 38°02' E 023°35'0 0.0
2014-Oct-28 05:33N 38°02' E 023°35'2 0.2
2014-Oct-27 19:12N 38°02' E 023°32'0 0.0
2014-Oct-27 18:33N 38°02' E 023°32'0 0.0
2014-Oct-27 17:10N 38°02' E 023°32'0 0.0
2014-Oct-27 16:33N 38°02' E 023°32'0 0.0
2014-Oct-27 11:33N 38°02' E 023°32'0 0.0
2014-Oct-27 10:33N 38°02' E 023°32'0 0.0
2014-Oct-27 09:33N 38°02' E 023°32'0 0.0
2014-Oct-27 08:33N 38°02' E 023°32'0 0.0
2014-Oct-27 07:33N 38°02' E 023°32'0 0.0
2014-Oct-27 06:33N 38°02' E 023°32'0 0.0
2014-Oct-26 13:33N 38°02' E 023°32'6 6.2
2014-Oct-26 12:33N 37°57' E 023°36'2 1.8
2014-Oct-26 11:33N 37°56' E 023°38'0 0.0
2014-Oct-26 10:33N 37°56' E 023°38'0 0.0
2014-Oct-26 09:33N 37°56' E 023°38'0 0.0
2014-Oct-26 08:33N 37°56' E 023°38'1 1.0
2014-Oct-26 07:33N 37°57' E 023°37'2 1.8
2014-Oct-26 06:33N 37°57' E 023°34'5 5.4
2014-Oct-26 05:33N 38°02' E 023°32'0 0.0
2014-Oct-26 04:33N 38°02' E 023°32'0 0.0
2014-Oct-26 03:33N 38°02' E 023°32'0 0.0
2014-Oct-25 15:09N 38°02' E 023°32'1 2.3
2014-Oct-25 14:33N 38°01' E 023°33'5 5.4
2014-Oct-25 13:34N 37°56' E 023°34'0 0.0
2014-Oct-25 12:33N 37°56' E 023°34'1 1.0
2014-Oct-25 11:33N 37°56' E 023°34'5 4.7
2014-Oct-25 10:33N 38°01' E 023°32'0 0.1
2014-Oct-25 09:33N 38°01' E 023°32'1 1.4
2014-Oct-25 08:34N 38°02' E 023°32'0 0.0
2014-Oct-25 07:33N 38°02' E 023°32'0 0.0
2014-Oct-25 06:29N 38°02' E 023°32'3 2.9
2014-Oct-25 05:31N 38°02' E 023°36'0 0.2
2014-Oct-25 04:33N 38°02' E 023°36'0 0.0
2014-Oct-25 03:33N 38°02' E 023°36'0 0.0
2014-Oct-25 02:33N 38°02' E 023°36'0 0.0
2014-Oct-25 01:33N 38°02' E 023°36'0 0.1
2014-Oct-25 00:33N 38°02' E 023°36'1 0.8
2014-Oct-24 23:33N 38°02' E 023°35'0 0.1
2014-Oct-24 22:33N 38°02' E 023°35'0 0.0
2014-Oct-24 21:33N 38°02' E 023°35'0 0.0
2014-Oct-24 20:33N 38°02' E 023°35'0 0.0
2014-Oct-24 19:34N 38°02' E 023°35'0 0.0
2014-Oct-24 18:33N 38°02' E 023°35'0 0.1
2014-Oct-24 17:33N 38°02' E 023°35'0 0.0
2014-Oct-24 16:33N 38°02' E 023°35'0 0.1
2014-Oct-24 15:34N 38°02' E 023°35'0 0.1
2014-Oct-24 14:33N 38°02' E 023°35'0 0.0
2014-Oct-24 13:34N 38°02' E 023°35'0 0.1
2014-Oct-24 12:33N 38°02' E 023°35'0 0.1
2014-Oct-24 11:34N 38°02' E 023°35'0 0.1
2014-Oct-24 10:34N 38°02' E 023°35'0 0.1
2014-Oct-24 09:34N 38°02' E 023°35'2 2.1
2014-Oct-24 08:34N 38°02' E 023°32'0 0.1
2014-Oct-24 07:34N 38°02' E 023°32'0 0.0
2014-Oct-24 06:33N 38°02' E 023°32'0 0.0
2014-Oct-24 05:33N 38°02' E 023°32'0 0.0
2014-Oct-24 04:33N 38°02' E 023°32'0 0.0
2014-Oct-23 17:33N 38°02' E 023°32'6 5.9
2014-Oct-23 16:33N 37°57' E 023°36'0 0.1
2014-Oct-23 15:33N 37°58' E 023°36'0 0.0
2014-Oct-23 14:33N 37°58' E 023°36'0 0.0
2014-Oct-23 13:33N 37°58' E 023°36'4 4.3
2014-Oct-23 12:33N 38°00' E 023°32'1 0.7
2014-Oct-23 11:33N 38°01' E 023°32'0 0.0
2014-Oct-23 10:33N 38°01' E 023°32'0 0.0
2014-Oct-23 09:33N 38°01' E 023°32'0 0.0
2014-Oct-23 08:33N 38°01' E 023°32'0 0.0
2014-Oct-23 07:33N 38°01' E 023°32'0 0.1
2014-Oct-23 06:33N 38°01' E 023°32'0 0.0
2014-Oct-23 05:33N 38°01' E 023°32'0 0.0
2014-Oct-23 04:33N 38°01' E 023°32'1 1.2
2014-Oct-23 03:33N 38°02' E 023°32'0 0.0
2014-Oct-23 02:33N 38°02' E 023°32'0 0.0
2014-Oct-22 10:08N 38°02' E 023°32'0 0.0
2014-Oct-22 09:33N 38°02' E 023°32'3 2.9
2014-Oct-22 08:34N 38°02' E 023°36'0 0.0
2014-Oct-22 07:34N 38°02' E 023°36'0 0.0
2014-Oct-22 06:34N 38°02' E 023°36'0 0.0
2014-Oct-22 05:33N 38°02' E 023°36'0 0.2
2014-Oct-22 04:34N 38°02' E 023°35'3 2.7
2014-Oct-22 03:34N 38°02' E 023°32'0 0.0
2014-Oct-21 10:33N 38°02' E 023°32'0 0.0
2014-Oct-21 09:33N 38°02' E 023°32'0 0.0
2014-Oct-21 08:33N 38°02' E 023°32'5 5.1
2014-Oct-21 07:33N 37°57' E 023°34'1 1.4
2014-Oct-21 06:33N 37°57' E 023°35'0 0.0
2014-Oct-21 05:33N 37°57' E 023°35'2 2.5
2014-Oct-21 04:33N 37°58' E 023°33'4 3.7
2014-Oct-21 03:30N 38°02' E 023°32'0 0.0
2014-Oct-21 02:32N 38°02' E 023°32'  
Track history (hours):
 
Tides and Currents Weather Stations Pressure Air Temp Water Temp Dewpoint Dewpoint Depression Visibility Wind Speed Wind Dir Waves Ship Positions

Aegean Viii

Last reported at 2014-Oct-30 13:33 UTC. Time now 2014-Oct-30 14:23 UTC.
Position N 37°58' E 023°37'.

Length 12 m; draft 4.5 m.

Type: Tanker. MMSI: 240732000.

Date/timePositionNaut miles runAvg speedWind from/ knotsBaromVisibWave heightAir tempDewpointWater temp
2014-Oct-30 13:33N 37°58' E 023°37'0 0.4
2014-Oct-30 12:33N 37°57' E 023°36'1 1.1
2014-Oct-30 11:33N 37°57' E 023°35'0 0.1
2014-Oct-30 10:33N 37°57' E 023°35'1 1.4
2014-Oct-30 09:33N 37°58' E 023°36'0 0.0
2014-Oct-30 08:33N 37°58' E 023°36'1 1.0
2014-Oct-30 07:34N 37°57' E 023°35'5 5.0
2014-Oct-30 06:34N 38°01' E 023°32'0 0.0
2014-Oct-30 05:33N 38°01' E 023°32'1 1.0
2014-Oct-30 04:33N 38°02' E 023°32'0 0.1
2014-Oct-30 03:33N 38°02' E 023°32'0 0.0
2014-Oct-29 10:33N 38°02' E 023°32'6 5.7
2014-Oct-29 09:33N 37°58' E 023°36'0 0.1
2014-Oct-29 08:33N 37°58' E 023°37'0 0.0
2014-Oct-29 07:34N 37°58' E 023°37'0 0.1
2014-Oct-29 06:34N 37°57' E 023°37'3 3.4
2014-Oct-29 05:34N 37°59' E 023°33'3 3.1
2014-Oct-29 04:34N 38°02' E 023°32'0 0.0
2014-Oct-29 03:33N 38°02' E 023°32'0 0.0
2014-Oct-28 18:33N 38°02' E 023°32'3 2.9
2014-Oct-28 17:33N 38°02' E 023°36'0 0.0
2014-Oct-28 16:33N 38°02' E 023°36'0 0.0
2014-Oct-28 15:33N 38°02' E 023°36'0 0.0
2014-Oct-28 14:33N 38°02' E 023°36'0 0.0
2014-Oct-28 13:33N 38°02' E 023°36'0 0.0
2014-Oct-28 12:33N 38°02' E 023°36'0 0.0
2014-Oct-28 11:33N 38°02' E 023°36'1 0.8
2014-Oct-28 10:33N 38°02' E 023°35'0 0.0
2014-Oct-28 09:33N 38°02' E 023°35'0 0.1
2014-Oct-28 08:33N 38°02' E 023°35'0 0.1
2014-Oct-28 07:33N 38°02' E 023°35'0 0.0
2014-Oct-28 06:33N 38°02' E 023°35'0 0.0
2014-Oct-28 05:33N 38°02' E 023°35'2 0.2
2014-Oct-27 19:12N 38°02' E 023°32'0 0.0
2014-Oct-27 18:33N 38°02' E 023°32'0 0.0
2014-Oct-27 17:10N 38°02' E 023°32'0 0.0
2014-Oct-27 16:33N 38°02' E 023°32'0 0.0
2014-Oct-27 11:33N 38°02' E 023°32'0 0.0
2014-Oct-27 10:33N 38°02' E 023°32'0 0.0
2014-Oct-27 09:33N 38°02' E 023°32'0 0.0
2014-Oct-27 08:33N 38°02' E 023°32'0 0.0
2014-Oct-27 07:33N 38°02' E 023°32'0 0.0
2014-Oct-27 06:33N 38°02' E 023°32'0 0.0
2014-Oct-26 13:33N 38°02' E 023°32'6 6.2
2014-Oct-26 12:33N 37°57' E 023°36'2 1.8
2014-Oct-26 11:33N 37°56' E 023°38'0 0.0
2014-Oct-26 10:33N 37°56' E 023°38'0 0.0
2014-Oct-26 09:33N 37°56' E 023°38'0 0.0
2014-Oct-26 08:33N 37°56' E 023°38'1 1.0
2014-Oct-26 07:33N 37°57' E 023°37'2 1.8
2014-Oct-26 06:33N 37°57' E 023°34'5 5.4
2014-Oct-26 05:33N 38°02' E 023°32'0 0.0
2014-Oct-26 04:33N 38°02' E 023°32'0 0.0
2014-Oct-26 03:33N 38°02' E 023°32'0 0.0
2014-Oct-25 15:09N 38°02' E 023°32'1 2.3
2014-Oct-25 14:33N 38°01' E 023°33'5 5.4
2014-Oct-25 13:34N 37°56' E 023°34'0 0.0
2014-Oct-25 12:33N 37°56' E 023°34'1 1.0
2014-Oct-25 11:33N 37°56' E 023°34'5 4.7
2014-Oct-25 10:33N 38°01' E 023°32'0 0.1
2014-Oct-25 09:33N 38°01' E 023°32'1 1.4
2014-Oct-25 08:34N 38°02' E 023°32'0 0.0
2014-Oct-25 07:33N 38°02' E 023°32'0 0.0
2014-Oct-25 06:29N 38°02' E 023°32'3 2.9
2014-Oct-25 05:31N 38°02' E 023°36'0 0.2
2014-Oct-25 04:33N 38°02' E 023°36'0 0.0
2014-Oct-25 03:33N 38°02' E 023°36'0 0.0
2014-Oct-25 02:33N 38°02' E 023°36'0 0.0
2014-Oct-25 01:33N 38°02' E 023°36'0 0.1
2014-Oct-25 00:33N 38°02' E 023°36'1 0.8
2014-Oct-24 23:33N 38°02' E 023°35'0 0.1
2014-Oct-24 22:33N 38°02' E 023°35'0 0.0
2014-Oct-24 21:33N 38°02' E 023°35'0 0.0
2014-Oct-24 20:33N 38°02' E 023°35'0 0.0
2014-Oct-24 19:34N 38°02' E 023°35'0 0.0
2014-Oct-24 18:33N 38°02' E 023°35'0 0.1
2014-Oct-24 17:33N 38°02' E 023°35'0 0.0
2014-Oct-24 16:33N 38°02' E 023°35'0 0.1
2014-Oct-24 15:34N 38°02' E 023°35'0 0.1
2014-Oct-24 14:33N 38°02' E 023°35'0 0.0
2014-Oct-24 13:34N 38°02' E 023°35'0 0.1
2014-Oct-24 12:33N 38°02' E 023°35'0 0.1
2014-Oct-24 11:34N 38°02' E 023°35'0 0.1
2014-Oct-24 10:34N 38°02' E 023°35'0 0.1
2014-Oct-24 09:34N 38°02' E 023°35'2 2.1
2014-Oct-24 08:34N 38°02' E 023°32'0 0.1
2014-Oct-24 07:34N 38°02' E 023°32'0 0.0
2014-Oct-24 06:33N 38°02' E 023°32'0 0.0
2014-Oct-24 05:33N 38°02' E 023°32'0 0.0
2014-Oct-24 04:33N 38°02' E 023°32'0 0.0
2014-Oct-23 17:33N 38°02' E 023°32'6 5.9
2014-Oct-23 16:33N 37°57' E 023°36'0 0.1
2014-Oct-23 15:33N 37°58' E 023°36'0 0.0
2014-Oct-23 14:33N 37°58' E 023°36'0 0.0
2014-Oct-23 13:33N 37°58' E 023°36'4 4.3
2014-Oct-23 12:33N 38°00' E 023°32'1 0.7
2014-Oct-23 11:33N 38°01' E 023°32'0 0.0
2014-Oct-23 10:33N 38°01' E 023°32'0 0.0
2014-Oct-23 09:33N 38°01' E 023°32'0 0.0
2014-Oct-23 08:33N 38°01' E 023°32'0 0.0
2014-Oct-23 07:33N 38°01' E 023°32'0 0.1
2014-Oct-23 06:33N 38°01' E 023°32'0 0.0
2014-Oct-23 05:33N 38°01' E 023°32'0 0.0
2014-Oct-23 04:33N 38°01' E 023°32'1 1.2
2014-Oct-23 03:33N 38°02' E 023°32'0 0.0
2014-Oct-23 02:33N 38°02' E 023°32'0 0.0
2014-Oct-22 10:08N 38°02' E 023°32'0 0.0
2014-Oct-22 09:33N 38°02' E 023°32'3 2.9
2014-Oct-22 08:34N 38°02' E 023°36'0 0.0
2014-Oct-22 07:34N 38°02' E 023°36'0 0.0
2014-Oct-22 06:34N 38°02' E 023°36'0 0.0
2014-Oct-22 05:33N 38°02' E 023°36'0 0.2
2014-Oct-22 04:34N 38°02' E 023°35'3 2.7
2014-Oct-22 03:34N 38°02' E 023°32'0 0.0
2014-Oct-21 10:33N 38°02' E 023°32'0 0.0
2014-Oct-21 09:33N 38°02' E 023°32'0 0.0
2014-Oct-21 08:33N 38°02' E 023°32'5 5.1
2014-Oct-21 07:33N 37°57' E 023°34'1 1.4
2014-Oct-21 06:33N 37°57' E 023°35'0 0.0
2014-Oct-21 05:33N 37°57' E 023°35'2 2.5
2014-Oct-21 04:33N 37°58' E 023°33'4 3.7
2014-Oct-21 03:30N 38°02' E 023°32'0 0.0
2014-Oct-21 02:32N 38°02' E 023°32'  

Dump ship's entire track history